Location: Arthez
(43.0833°N, 0.2500°W)
Time: 06:15:40
(UTC+00:00)

Cosmos 1953 - Pass Details

Date: 23 October 2021
Orbit: 537 x 557 km, 82.5° (Epoch: 02 December)

Event Time Altitude Azimuth Distance (km) Brightness Sun altitude
Rises 17:32:55 0° 184° (S) 2,724 6.1 -5.7°
Reaches altitude 10° 17:35:04 10° 184° (S) 1,835 5.2 -6.1°
Maximum altitude 17:39:07 81° 99° (E) 570 2.3 -6.8°
Drops below altitude 10° 17:43:12 10° 10° (N) 1,853 4.8 -7.6°
Sets 17:45:23 0° 10° (N) 2,752 5.7 -8.0°
